Virginia Beach, VA

12:14 PM EST on February 20, 2017 (GMT -0500)
Norfolk International

Weather History for KORF - December, 2013

Change the Weather History Date:

Sunday, December 29, 2013

  Actual Average Record
Temperature  
Mean Temperature 56 °F 41 °F  
Max Temperature 66 °F 49 °F 79 °F (2015)
Min Temperature 46 °F 34 °F 11 °F (1917)
Degree Days  
Heating Degree Days 9 24  
Month to date heating degree days 529 602  
Since 1 July heating degree days 1060 1132  
Cooling Degree Days 0 0  
Month to date cooling degree days 5 0  
Year to date cooling degree days 1759 1628  
Growing Degree Days 4 (Base 50)    
Moisture  
Dew Point 52 °F    
Average Humidity 72    
Maximum Humidity 93    
Minimum Humidity 50    
Precipitation  
Precipitation 0.80 in 0.09 in 1.17 in (1915)
Month to date precipitation 4.75 3.07  
Year to date precipitation 45.65 46.34  
Snow  
Snow 0.00 in 0.10 in 6.60 in (1935)
Month to date snowfall 0.0 1.1  
Since 1 July snowfall 0.0 1.1  
Snow Depth -    
Sea Level Pressure  
Sea Level Pressure 29.79 in    
Wind  
Wind Speed 11 mph (SSW)    
Max Wind Speed 33 mph    
Max Gust Speed 44 mph    
Visibility 7 miles    
Events Rain    
T = Trace of Precipitation, MM = Missing Value Source: NWS Daily Summary

Daily Weather History Graph

Daily Weather History Graph

Search for Another Location

Airport or City:

Trip Planner

Search our weather history database for the weather conditions in past years. The results will help you decide how hot, cold, wet, or windy it might be!

Date:

Astronomy

Dec. 29, 2013 Rise Set
Actual Time 7:17 AM EST 4:56 PM EST
Civil Twilight 6:48 AM EST 5:25 PM EST
Nautical Twilight 6:15 AM EST 5:58 PM EST
Astronomical Twilight 5:44 AM EST 6:29 PM EST
Moon 4:00 AM EST (12/29) 2:31 PM EST (12/29)
Length of Visible Light 10h 37m
Length of Day
9h 39m
Waning Crescent, 11% of the Moon is Illuminated
Dec 29
Waning Crescent
Jan 1
New
Jan 7
First Quarter
Jan 15
Full
Jan 24
Last Quarter

Hourly Weather History & Observations

Time (EST) Temp. Windchill Dew Point Humidity Pressure Visibility Wind Dir Wind Speed Gust Speed Precip Events Conditions
12:51 AM 48.0 °F - 37.0 °F 66% 30.18 in 10.0 mi WSW 4.6 mph - 0.01 in Rain Light Rain
1:51 AM 46.0 °F - 39.0 °F 76% 30.16 in 10.0 mi Calm Calm - 0.00 in Rain Light Rain
2:51 AM 46.0 °F - 41.0 °F 83% 30.13 in 10.0 mi Calm Calm - 0.01 in Rain Light Rain
3:51 AM 46.0 °F 43.9 °F 41.0 °F 83% 30.08 in 10.0 mi East 4.6 mph - 0.00 in   Overcast
4:51 AM 46.0 °F - 41.0 °F 83% 30.06 in 10.0 mi Calm Calm - 0.01 in Rain Light Rain
5:51 AM 46.9 °F - 41.0 °F 80% 30.03 in 10.0 mi Calm Calm - 0.00 in   Overcast
6:51 AM 48.9 °F - 39.0 °F 69% 30.01 in 10.0 mi East 6.9 mph - N/A   Overcast
7:51 AM 50.0 °F - 44.1 °F 80% 29.96 in 9.0 mi SE 4.6 mph - 0.00 in Rain Light Rain
8:02 AM 50.0 °F - 44.6 °F 82% 29.95 in 2.0 mi ESE 3.5 mph - 0.01 in Rain Light Rain
8:51 AM 53.1 °F - 50.0 °F 89% 29.90 in 2.0 mi ESE 8.1 mph - 0.08 in Rain Light Rain
8:58 AM 53.6 °F - 51.8 °F 94% 29.89 in 4.0 mi ESE 8.1 mph - 0.01 in Rain Light Rain
9:09 AM 55.4 °F - 51.8 °F 88% 29.88 in 2.5 mi SE 9.2 mph 17.3 mph 0.05 in Rain Rain
9:17 AM 55.4 °F - 53.6 °F 94% 29.87 in 4.0 mi SE 12.7 mph 19.6 mph 0.07 in Rain Light Rain
9:51 AM 57.9 °F - 55.0 °F 90% 29.84 in 6.0 mi SSE 13.8 mph 23.0 mph 0.11 in Rain Light Rain
10:51 AM 60.1 °F - 57.0 °F 90% 29.78 in 4.0 mi South 15.0 mph - 0.12 in Rain Light Rain
11:38 AM 62.6 °F - 59.0 °F 88% 29.72 in 4.0 mi South 20.7 mph 29.9 mph 0.14 in Rain Rain
11:51 AM 63.0 °F - 60.1 °F 90% 29.71 in 4.0 mi South 19.6 mph 31.1 mph 0.17 in Rain Rain
12:21 PM 64.4 °F - 60.8 °F 88% 29.66 in 2.0 mi South 19.6 mph 29.9 mph 0.12 in Rain Heavy Rain
12:29 PM 64.4 °F - 60.8 °F 88% 29.64 in 3.0 mi South 18.4 mph 32.2 mph 0.16 in Rain Rain
12:51 PM 64.9 °F - 62.1 °F 90% 29.62 in 10.0 mi South 26.5 mph 39.1 mph 0.18 in Rain Light Rain
1:26 PM 66.2 °F - 62.6 °F 88% 29.60 in 8.0 mi South 25.3 mph 39.1 mph 0.02 in Rain Light Rain
1:51 PM 66.0 °F - 62.1 °F 87% 29.58 in 7.0 mi South 25.3 mph 43.7 mph 0.02 in   Overcast
2:24 PM 64.4 °F - 62.6 °F 94% 29.56 in 2.5 mi South 23.0 mph 35.7 mph 0.01 in   Overcast
2:32 PM 64.4 °F - 62.6 °F 94% 29.56 in 2.0 mi South 24.2 mph 36.8 mph 0.02 in   Overcast
2:34 PM 64.4 °F - 62.6 °F 94% 29.56 in 2.0 mi SSW 26.5 mph 36.8 mph 0.02 in   Overcast
2:44 PM 66.2 °F - 62.6 °F 88% 29.56 in 5.0 mi SSW 28.8 mph 40.3 mph 0.02 in   Overcast
2:51 PM 66.0 °F - 62.1 °F 87% 29.56 in 8.0 mi SSW 29.9 mph 41.4 mph 0.03 in   Overcast
3:04 PM 66.2 °F - 62.6 °F 88% 29.60 in 2.5 mi West 15.0 mph 38.0 mph 0.00 in Rain Light Rain
3:10 PM 64.4 °F - 60.8 °F 88% 29.62 in 1.5 mi West 16.1 mph 31.1 mph 0.05 in Rain Light Rain
3:14 PM 64.4 °F - 60.8 °F 88% 29.61 in 2.5 mi West 17.3 mph 31.1 mph 0.05 in Rain Light Rain
3:17 PM 64.4 °F - 60.8 °F 88% 29.61 in 6.0 mi WSW 13.8 mph 31.1 mph 0.05 in Rain Light Rain
3:21 PM 64.4 °F - 60.8 °F 88% 29.62 in 10.0 mi WSW 11.5 mph 31.1 mph 0.05 in   Overcast
3:51 PM 62.1 °F - 57.0 °F 84% 29.62 in 10.0 mi WSW 16.1 mph 25.3 mph 0.06 in   Partly Cloudy
4:51 PM 59.0 °F - 53.1 °F 81% 29.66 in 10.0 mi WSW 10.4 mph 21.9 mph N/A   Clear
5:51 PM 57.0 °F - 50.0 °F 77% 29.70 in 10.0 mi WSW 10.4 mph 18.4 mph N/A   Clear
6:51 PM 54.0 °F - 48.0 °F 80% 29.73 in 10.0 mi WSW 16.1 mph 21.9 mph N/A   Clear
7:51 PM 53.1 °F - 46.9 °F 80% 29.78 in 10.0 mi WSW 9.2 mph - N/A   Clear
8:51 PM 52.0 °F - 46.9 °F 83% 29.80 in 10.0 mi WSW 8.1 mph - N/A   Clear
9:51 PM 52.0 °F - 46.0 °F 80% 29.84 in 10.0 mi WSW 5.8 mph - N/A   Clear
10:51 PM 51.1 °F - 44.1 °F 77% 29.86 in 10.0 mi West 5.8 mph - N/A   Clear
11:51 PM 48.9 °F - 43.0 °F 80% 29.89 in 10.0 mi WSW 3.5 mph - N/A   Clear